Location: ??
(35.4627°N, 139.3695°E)
Time: 06:18:22
(UTC+00:00)

COSMO-SKYMED 1 - Pass Details

Date: 25 November 2020
Orbit: 621 x 623 km, 97.9° (Epoch: 20 January)

Event Time Altitude Azimuth Distance (km) Brightness Sun altitude
Rises 19:55:57 0° 164° (SSE) 2,886 6.4 -18.6°
Reaches altitude 10° 19:58:08 10° 164° (SSE) 1,984 5.5 -18.2°
Maximum altitude 20:02:27 82° 77° (ENE) 633 2.6 -17.3°
Drops below altitude 10° 20:06:48 10° 350° (N) 1,999 4.9 -16.5°
Enters shadow 20:08:21 - 349° (N) 2,638 5.5 -16.2°
